Back to catalog

CZ-4 DEB

AliveSSO
NORAD 35334·DEBRIS·🇨🇳 China

Launched Oct 14, 1999 from Taiyuan Satellite Launch Center

Loading…

Next Passes (next 24 hours)

TLE

FreshSource: Space-Track

Epoch: Sep 14, 2026, 10:43 UTC

1 35334U 99057SN  26257.44677124  .00001583  00000-0  32566-3 0  9997
2 35334  98.4233 326.5097 0063361  96.6625 264.1791 14.60749664 81448

Track CZ-4 DEB in real time with AllMySat

Download on the App Store